Meteo Giornale » Osservazioni meteo Italia » Trieste

ore: 18:55 - Osservazioni Meteo Trieste
Lat. 45° 39' N Lon. 13° 45' E Alt. 8 metri s.l.m.

sereno Europe/Rome

20 °C

Sereno

Temp. 24 Ore

17 °C

24 °C

Nord-Est

7.4 Km/h

Dew point 6 °C

Umidità 39 %

Visibilità  10 Km

Il sole sorge alle ore 07:27

Il sole tramonta alle ore 18:12

Data e Ora Cielo e Fenomeni T °C DP °C Um. % Pres. hPa Vis. km Vento km/h
Oggi h: 18:55 sereno Sereno 20 6 39 1021 10 NE 7.4
Oggi h: 17:55 sereno Sereno 22 7 37 1021 10 N 3.7
Oggi h: 16:55 sereno Sereno 24 8 35 1021 10 N 5.5
Oggi h: 15:55 sereno Sereno 24 8 35 1021 10 NE 7.4
Oggi h: 13:55 sereno Sereno 23 9 40 1022 10 NE 7.4
Oggi h: 12:55 sereno Sereno 22 10 46 1023 10 NE 11.1
Oggi h: 10:55 sereno Sereno 20 11 56 1023 10 NE 7.4
Oggi h: 09:55 sereno Sereno 18 11 63 1022 10 E/NE 18.5
Oggi h: 08:55 sereno Sereno 17 10 63 1022 10 E 9.3
Oggi h: 07:55 sereno Sereno 17 10 63 1021 10 NE 20.3
Oggi h: 06:55 sereno Sereno 18 10 59 1020 10 NE 22.2
Oggi h: 05:55 sereno Sereno 18 10 59 1020 10 NE 22.2
Oggi h: 04:55 sereno Sereno 18 10 59 1020 10 NE 22.2
Oggi h: 03:55 sereno Sereno 18 11 63 1019 10 NE 20.3
Oggi h: 02:55 sereno Sereno 19 11 59 1019 10 N/NE 24
Oggi h: 01:55 sereno Sereno 19 11 59 1019 10 NE 22.2
Ieri h: 23:55 sereno Sereno 19 10 55 1019 10 N/NE 22.2
Ieri h: 22:55 sereno Sereno 19 10 55 1019 10 N/NE 22.2
Ieri h: 21:55 sereno Sereno 20 11 56 1019 10 N/NE 24
Ieri h: 19:55 sereno Sereno 20 11 56 1018 10 N/NE 13